Observer details:
118 Astronomical and Geophysical Observatory, Modra.  Observer S. Gajdos.
    0.6-m f/5.5 reflector + CCD.
204 Schiaparelli Observatory.  Observer L. Buzzi.  0.84-m f/3.5 reflector +
    CCD.
703 Catalina Sky Survey.  Observer G. J. Leonard.  Measurers B. M. Africano,
    E. J. Christensen, G. A. Farneth, D. C. Fuls, A. R. Gibbs, A. D. Grauer,
    H. Groeller, R. A. Kowalski, S. M. Larson, G. J. Leonard, T. A. Pruyne,
    R. L. Seaman, F. C. Shelly.  0.68-m Schmidt + 10K CCD.
900 Moriyama.  Observer Y. Ikari.  0.26-m f/7.0 reflector + CCD.
C47 Nonndorf.  Observer G. Dangl.  0.25-m f/4.8 reflector + CCD.
C95 SATINO Remote Observatory, Haute Provence.  Observer J. Jahn.  0.60-m
    f/3.2 Newtonian reflector + CCD.
H01 Magdalena Ridge Observatory, Socorro.  Observers W. H. Ryan, E. V. Ryan.
    Measurer W. H. Ryan.  2.4-m f/8.9 Ritchey-Chretien + CCD.
H21 Astronomical Research Observatory, Westfield.  Observer R. Holmes.
    Measurers S. Foglia, L. Buzzi, T. Linder, R. Holmes.  0.76-m f/3.0
    astrograph + CCD.
I41 Palomar Mountain--ZTF.  Observers Q.-Z. Ye, Z. T. F. Collaboration.
    Measurers D. A. Duev, H.-W. Lin, A. A. Mahabal, F. J. Masci, D. Streaks,
    Q.-Z. Ye.  1.2-m f/2.4 Schmidt.
I52 Steward Observatory, Mt. Lemmon Station.  Observer G. J. Leonard.
    Measurers B. M. Africano, E. J. Christensen, G. A. Farneth, D. C. Fuls,
    A. R. Gibbs, A. D. Grauer, H. Groeller, R. A. Kowalski, S. M. Larson,
    G. J. Leonard, T. A. Pruyne, R. L. Seaman, F. C. Shelly.  1.0-m reflector
    + CCD.
I93 St Pardon de Conques.  Observer F. Losse.  0.40-m f/3.7 reflector + CCD.
J95 Great Shefford.  Observer P. Birtwhistle.  0.41-m f/6.3
    Schmidt-Cassegrain + CCD.
K38 M57 Observatory, Saltrio.  Observer G. Baj.  0.3-m f/5.5 Ritchey-Chretien
    + CCD.
K51 Osservatorio del Celado, Castello Tesino.  Observers G. Favero,
    R. Furgoni.  Measurer R. Furgoni.  0.80-m f/4 reflector + CCD.
K61 Rokycany Observatory.  Observers M. Adamovsky, L. Machuldova.  Measurer
    M. Adamovsky.  0.51-m f/6.8 reflector + CCD.
K87 Dettelbach Vineyard Observatory.  Observer B. Haeusler.  0.30-m
    Schmidt-Cassegrain + CCD.
K88 GINOP-KHK, Piszkesteto.  Observer K. Sarneczky.  0.60-m Schmidt + CCD.
P93 Space Tracking and Communications Center, JAXA.  Observers T. Nimura,
    T. Fujiwara.  1.0-m f/3.0 reflector + CCD.
Z80 Northolt Branch Observatory.  Observer G. Wells.  Measurers G. Wells,
    D. Bamberger.  0.25-m f/8.0 Ritchey-Chretien + CCD.
 
Orbital elements:
2019 FD                                                  Earth MOID = 0.0183 AU
Epoch 2019 Apr. 27.0 TT = JDT 2458600.5                 MPC
M 130.84608              (2000.0)            P               Q
n   1.06269219     Peri.  254.05531     +0.46830837     -0.88301711
a   0.9510377      Node   167.87556     +0.85671007     +0.44517725
e   0.2443659      Incl.    8.51885     +0.21618307     +0.14865397
P   0.93           H   23.4           G   0.15           U   7
Residuals in seconds of arc
190317 703  0.9-  0.5+    190318 H01  0.2-  0.1+    190318 C47  0.4-  0.2+
190317 703  0.2+  0.1-    190318 H01  0.2-  0.1-    190318 C47  0.3-  0.2+
190317 703  0.1+  0.2-    190318 H21  0.3-  0.1+    190318 C47  0.1-  0.1-
190317 703  0.4-  0.3+    190318 H21  0.1+  0.4+    190318 C47  0.2+  0.0
190317 I52  0.0   0.1+    190318 H21  0.1-  0.0     190318 K38  0.3-  0.3-
190317 I52  0.1+  0.4-    190318 H21  0.2-  0.1-    190319 K38  0.4-  0.2+
190317 I52  0.2-  0.1-    190318 H21  0.0   0.0     190319 K38  0.1+  0.4-
190317 I52  0.1+  0.2-    190318 H21  0.1-  0.0     190319 K38  0.2-  0.0
190317 703  0.2+  0.1+    190318 H21  0.1-  0.2-    190319 204  0.5-  0.0
190317 703  0.2+  0.2-    190318 H21  0.0   0.0     190319 204  0.3-  0.0
190317 703  0.1-  0.1-    190318 I41 (0.2-  2.7+)   190319 204  0.4-  0.1+
190317 703  0.2+  0.1-    190318 I41 (0.3-  1.7+)   190319 204  0.6-  0.1+
190317 703  0.3-  0.3+    190318 I52  0.6-  0.3-    190319 204  0.4-  0.1-
190317 703  0.4+  0.3+    190318 I52  0.3-  0.6-    190319 900  0.0   0.0
190317 703  0.1+  0.2+    190318 I52  0.1+  0.1+    190319 900  0.1-  0.1+
190317 703  0.2-  0.1+    190318 I52  0.7-  0.4-    190319 K38  0.0   0.2+
190317 P93  0.7+  0.1+    190318 I41 (2.0+  1.0-)   190319 J95  0.4+  0.0
190317 P93  0.3+  0.0     190318 I41  1.3+  0.9-    190319 K38  0.0   0.2-
190317 P93  0.5+  0.2-    190318 I41 (2.2+  0.5-)   190319 J95  0.3+  0.0
190317 P93  0.6+  0.1-    190318 I41  1.4+  0.6-    190319 I93  0.4+  0.1+
190317 K88  0.4-  0.6+    190318 I52  0.1-  0.1+    190319 K38  0.1-  0.2+
190317 K88  0.2-  0.5+    190318 I52  0.3-  0.0     190319 J95  0.1+  0.2+
190317 K88  0.6-  0.3+    190318 I52  0.1-  0.3-    190319 I93  0.1-  0.2+
190317 K88  0.3-  0.0     190318 I52  0.2-  0.0     190319 I93  0.1-  0.1-
190317 Z80  0.1+  0.4-    190318 I41 (1.6+  0.9+)   190320 118  0.8-  0.2-
190317 Z80  0.0   0.3-    190318 I41  0.9+  0.5+    190320 118  1.0-  0.2+
190318 Z80  0.3-  0.2+    190318 K51  0.3-  0.1+    190320 118  0.8-  0.1+
190318 C95  0.3+  0.2-    190318 K51  0.4+  0.1-    190320 118  0.8-  0.0
190318 C95  0.8+  0.5+    190318 K51  0.6-  0.2+    190320 118  0.7-  0.0
190318 C95  0.7-  0.1-    190318 K61  1.3+  0.4-    190320 K87  0.7+  0.6-
190318 H01  0.2-  0.0     190318 K61  1.4+  0.1-    190320 K87  0.3+  0.3-
190318 H01  0.3-  0.1+    190318 C47  0.3-  0.0     190320 K87  0.5+  0.3-

Ephemeris:
2019 FD                  a,e,i = 0.95, 0.24, 9                   q = 0.7186
Date    TT    R. A. (2000) Decl.     Delta      r     Elong.  Phase     V
2019 02 18    23 03 30.7 -30 04 10   0.1199  0.8789    22.9   154.1    27.8
...
2019 03 05    22 14 28.6 -21 02 13   0.04935 0.9450    18.4   160.6    27.9
...
2019 03 13    20 17 34.5 +12 23 51   0.02335 0.9790    50.3   128.6    20.8
...
2019 03 19    16 21 40.3 +48 50 00   0.02914 1.0034   105.3    73.1    18.3
2019 03 20    15 45 19.2 +50 07 29   0.03223 1.0074   110.6    67.7    18.3
2019 03 21    15 14 25.0 +50 37 29   0.03561 1.0113   114.8    63.4    18.4
...
2019 03 27    13 32 09.4 +48 21 38   0.05897 1.0342   127.0    50.3    19.2
...
2019 04 04    12 45 15.5 +44 25 30   0.09339 1.0626   130.2    46.0    20.1
...
2019 04 19    12 19 38.0 +38 37 59   0.1622  1.1085   126.6    46.7    21.4

A. U. Tomatic                (C) Copyright 2019 MPC           M.P.E.C. 2019-F45



More information about the Iaude mailing list